SL-4 R/B (44456 NORAD) Tracking and Keplerian Element Data

This shows tracking and keplerian element data for the satellite.

Feedback or suggestion? Click here.




ElementValue
Catalog44456
NameSL-4 R/B
Epoch Orbit57
Epoch Day216.00636506
Epoch Year2019
RAAN121.9082
Inclination51.6509
Eccentricity0.0007228
Argument of Perigee170.944
Mean Anonmoly309.9675
Mean Motion16.56069092
Decay Rate0.3183906
L11 44456U 19047B 19216.00636506 .31839060 12737-4 13947-3 0 9990
L22 44456 51.6509 121.9082 0007228 170.9440 309.9675 16.56069092 573

Live tracking and technical data element details for SL-4 R/B (NORAD 44456). SL-4 R/B can be tracked NOW for your location showing map with azimuth and elevation plus other details from your city location.

Track the satellite on the map from your city or location and see movement details for azimuth, elevation, latitude, longitude, range, height, and movement on the map or in text.







IsCatalogInMostPopularTable: catalog: 44456, numindb: 2
Update: records affected: 1



GetName: 44456 SL-4 R/B

Hit Count: updated at: Wed, 21 Aug 2019 11:51:03 GMT